Regional Weather Roundup
Issued by NWS

Home | Current Version | Previous Version | Text Only | Print | Product List | Glossary Off
Versions: 1 2 3 4 5 6 7 8 9 10 11 12 13 14 15 16 17 18 19 20 21 22 23 24 25 26 27 28 29 30 31 32 33 34 35 36 37 38 39 40 41 42 43 44 45 46 47 48 49 50

000
ASUS44 KOUN 250510
RWROK

WEATHER ROUNDUP FOR OKLAHOMA
NATIONAL WEATHER SERVICE NORMAN OK
1100 PM CST FRI FEB 24 2017

NOTE: "FAIR" INDICATES FEW OR NO CLOUDS BELOW 12,000 FEET WITH NO
      SIGNIFICANT WEATHER AND/OR OBSTRUCTIONS TO VISIBILITY.

OKZ001>007-009>012-014-015-017-250600-
NORTHWEST OKLAHOMA AND THE PANHANDLE

CITY           SKY/WX    TMP DP  RH WIND       PRES   REMARKS
GAGE           CLEAR     24  17  74 N8        30.16R WCI  15
GUYMON         CLEAR     25  15  66 NE6       30.14R WCI  18
ENID/WOODRING  CLEAR     32  23  69 N17       30.17R WCI  21
$$

OKZ016-021>023-033>039-044-045-250600-
SOUTHWEST OKLAHOMA

CITY           SKY/WX    TMP DP  RH WIND       PRES   REMARKS
LAWTON/FT SILL CLEAR     37  25  60 N16G23    30.13R WCI  28
FREDERICK      CLEAR     39  24  55 NE17      30.11R WCI  30
CLINTON        PTCLDY    29  20  69 N6        30.16R WCI  23
HOBART         CLEAR     35  24  64 NE13      30.16R WCI  26
ALTUS AFB      CLEAR     37  22  53 NE15      30.14R WCI  28
$$

OKZ018>020-024>031-250600-
CENTRAL OKLAHOMA

CITY           SKY/WX    TMP DP  RH WIND       PRES   REMARKS
OKLAHOMA CITY  PTCLDY    35  22  58 N9        30.14S WCI  28
OKC/WILEY POST CLEAR     33  24  69 N8        30.16R WCI  26
OKC/TINKER AFB CLEAR     34  21  59 N12       30.13R WCI  26
STILLWATER     CLEAR     32  21  64 N9G22     30.16R WCI  24
GUTHRIE        CLEAR     33  23  66 N6        30.16R WCI  28
$$

OKZ008-013-054>072-250600-
NORTHEAST OKLAHOMA

CITY           SKY/WX    TMP DP  RH WIND       PRES   REMARKS
TULSA          CLEAR     32  22  66 NW9       30.14S WCI  24
TULSA/JONES    CLEAR     34  21  59 N5        30.15S WCI  30
PONCA CITY     CLEAR     29  19  66 N16       30.17R WCI  17
BARTLESVILLE   CLOUDY    33  19  56 N9G22     30.17R WCI  25
MUSKOGEE       CLEAR     34  22  61 N12       30.15R WCI  25
$$

OKZ032-040>043-046>053-073>077-250600-
SOUTH CENTRAL/SOUTHEAST OKLAHOMA

CITY           SKY/WX    TMP DP  RH WIND       PRES   REMARKS
ARDMORE/DWNTWN CLEAR     41  21  45 N9        30.13R
MCALESTER      PTCLDY    39  22  50 N10       30.13R WCI  32
$$





USA.gov is the U.S. government's official web portal to all federal, state and local government web resources and services.